Orbital Elements at Epoch 2459000.5 (2020-May-31.0) TDB
Reference: JPL 21 (heliocentric ecliptic J2000)
Element | Value | Uncertainty (1-sigma) | Units |
e | .04230314554633038 | 4.9895e-08 | |
a | 2.607729473665828 | 2.4676e-08 | au |
q | 2.497414314195887 | 1.4137e-07 | au |
i | 6.33965909033644 | 6.0351e-06 | deg |
node | 209.6420017710894 | 4.4024e-05 | deg |
peri | 278.3008938491136 | 8.867e-05 | deg |
M | 237.5949343742025 | 7.7316e-05 | deg |
tp | 2459523.484864845531 (2021-Nov-04.98486485) | 0.00032942 | TDB |
period | 1538.12712228726 4.21 | 2.1832e-05 5.977e-08 | d yr |
n | .2340508757589976 | 3.3221e-09 | deg/d |
Q | 2.718044633135769 | 2.572e-08 | au |
|
| | Orbit Determination Parameters
Additional Information
|